Clarksburg, WV

10:59 AM EST on December 15, 2019 (GMT -0500)
Benedum

Weather History for KCKB - October, 2019

Change the Weather History Date:

Saturday, October 19, 2019

  Actual Average Record
Temperature  
Mean Temperature 51 °F -  
Max Temperature 70 °F 63 °F 86 °F (1938)
Min Temperature 32 °F 38 °F 23 °F (1948)
Degree Days  
Heating Degree Days 14    
Month to date heating degree days 103  
Moisture  
Dew Point 37 °F    
Average Humidity 63    
Maximum Humidity 92    
Minimum Humidity 34    
Precipitation  
Precipitation 0.00 in - - ()
Month to date precipitation 1.49  
Year to date precipitation 33.56  
Sea Level Pressure  
Sea Level Pressure 29.98 in    
Wind  
Wind Speed 1 mph (North)    
Max Wind Speed 9 mph    
Max Gust Speed 11 mph    
Visibility 8 miles    
Events      
Averages and records for this station are not official NWS values.
T = Trace of Precipitation, MM = Missing Value Source: NWS Daily Summary

Daily Weather History Graph

Daily Weather History Graph

Search for Another Location

Airport or City:

Astronomy

Oct. 19, 2019 Rise Set
Actual Time 7:34 AM EDT 6:36 PM EDT
Civil Twilight 7:07 AM EDT 7:03 PM EDT
Nautical Twilight 6:36 AM EDT 7:34 PM EDT
Astronomical Twilight 6:05 AM EDT 8:05 PM EDT
Moon 10:45 PM EDT (10/19) 1:03 PM EDT (10/19)
Length of Visible Light 11h 56m
Length of Day
11h 02m
Waning Gibbous, 70% of the Moon is Illuminated
Oct 19
Waning Gibbous
Oct 21
Last Quarter
Oct 27
New
Nov 4
First Quarter
Nov 12
Full

Hourly Weather History & Observations

Time (EDT) Temp. Windchill Dew Point Humidity Pressure Visibility Wind Dir Wind Speed Gust Speed Precip Events Conditions
12:53 AM 39.0 °F - 35.1 °F 86% 30.04 in 10.0 mi Calm Calm - N/A   Clear
1:53 AM 37.9 °F - 34.0 °F 86% 30.04 in 9.0 mi Calm Calm - N/A   Clear
2:53 AM 36.0 °F - 33.1 °F 89% 30.05 in 7.0 mi Calm Calm - N/A   Clear
3:53 AM 36.0 °F - 32.0 °F 86% 30.04 in 7.0 mi Calm Calm - N/A   Clear
4:25 AM 35.1 °F - 33.1 °F 92% 30.04 in 1.8 mi Calm Calm - N/A   Clear
4:34 AM 35.1 °F - 32.0 °F 89% 30.04 in 3.0 mi Calm Calm - N/A   Clear
4:53 AM 35.1 °F - 32.0 °F 89% 30.04 in 8.0 mi Calm Calm - N/A   Clear
5:53 AM 33.1 °F 30.0 °F 30.0 °F 89% 30.05 in 4.0 mi ENE 3.5 mph - N/A   Clear
6:53 AM 33.1 °F - 30.0 °F 89% 30.04 in 7.0 mi Calm Calm - N/A   Clear
7:04 AM 33.1 °F - 28.9 °F 85% 30.04 in 1.2 mi Calm Calm - N/A   Clear
7:20 AM 33.1 °F - 28.9 °F 85% 30.04 in 5.0 mi Calm Calm - N/A   Clear
7:53 AM 33.1 °F - 28.9 °F 85% 30.04 in 6.0 mi Calm Calm - N/A   Clear
8:53 AM 37.9 °F - 35.1 °F 89% 30.03 in 9.0 mi Calm Calm - N/A   Clear
9:53 AM 45.0 °F - 39.0 °F 80% 30.02 in 10.0 mi Calm Calm - N/A   Clear
10:53 AM 53.1 °F - 39.9 °F 61% 30.01 in 10.0 mi Calm Calm - N/A   Clear
11:53 AM 60.1 °F - 39.0 °F 46% 30.00 in 10.0 mi Calm Calm - N/A   Clear
12:53 PM 66.0 °F - 37.9 °F 36% 29.99 in 10.0 mi WNW 4.6 mph - N/A   Clear
1:53 PM 68.0 °F - 39.0 °F 35% 29.96 in 10.0 mi Calm Calm - N/A   Clear
2:53 PM 68.0 °F - 39.0 °F 35% 29.93 in 10.0 mi WNW 4.6 mph - N/A   Clear
3:53 PM 68.0 °F - 39.9 °F 36% 29.90 in 10.0 mi Calm Calm - N/A   Clear
4:53 PM 68.0 °F - 41.0 °F 37% 29.90 in 10.0 mi Calm Calm - N/A   Clear
5:53 PM 64.0 °F - 44.1 °F 48% 29.89 in 10.0 mi NNE 3.5 mph - N/A   Clear
6:53 PM 61.0 °F - 44.1 °F 54% 29.90 in 10.0 mi East 3.5 mph - N/A   Clear
7:53 PM 59.0 °F - 45.0 °F 60% 29.90 in 10.0 mi Calm Calm - N/A   Clear
8:53 PM 55.0 °F - 45.0 °F 69% 29.89 in 10.0 mi Calm Calm - N/A   Clear
9:53 PM 53.1 °F - 44.1 °F 71% 29.89 in 10.0 mi Calm Calm - N/A   Clear
10:53 PM 53.1 °F - 45.0 °F 74% 29.90 in 10.0 mi SW 3.5 mph - N/A   Scattered Clouds
11:53 PM 52.0 °F - 46.0 °F 80% 29.89 in 10.0 mi Calm Calm - N/A   Overcast